DeKalb, IL

8:20 PM CDT on April 19, 2018 (GMT -0500)
De Kalb Taylor Municipal

Weather History for KDKB - June, 2013

Change the Weather History Date:

Tuesday, June 25, 2013

  Actual Average (KARR) Record (KARR)
Temperature  
Mean Temperature 74 °F -  
Max Temperature 84 °F 80 °F 96 °F (2005)
Min Temperature 65 °F 58 °F 49 °F (2017)
Cooling Degree Days 9    
Growing Degree Days 24 (Base 50)    
Moisture  
Dew Point 70 °F    
Average Humidity 88    
Maximum Humidity 91    
Minimum Humidity 80    
Precipitation  
Precipitation 0.12 in - - ()
Sea Level Pressure  
Sea Level Pressure 29.89 in    
Wind  
Wind Speed 7 mph (SSE)    
Max Wind Speed 25 mph    
Max Gust Speed 28 mph    
Visibility 9 miles    
Events Rain , Thunderstorm    
Averages and records for this station are not official NWS values.
T = Trace of Precipitation, MM = Missing Value Source: NWS Daily Summary

Daily Weather History Graph

Daily Weather History Graph

Search for Another Location

Airport or City:

Astronomy

Jun. 25, 2013 Rise Set
Actual Time 5:20 AM CDT 8:34 PM CDT
Civil Twilight 4:46 AM CDT 9:08 PM CDT
Nautical Twilight 4:02 AM CDT 9:52 PM CDT
Astronomical Twilight 3:08 AM CDT 10:46 PM CDT
Moon 10:16 PM CDT (6/25) 8:03 AM CDT (6/25)
Length of Visible Light 16h 22m
Length of Day
15h 13m
Waning Gibbous, 92% of the Moon is Illuminated
Jun 25
Waning Gibbous
Jun 29
Last Quarter
Jul 8
New
Jul 15
First Quarter
Jul 22
Full

Hourly Weather History & Observations

Time (CDT) Temp. Heat Index Dew Point Humidity Pressure Visibility Wind Dir Wind Speed Gust Speed Precip Events Conditions
12:15 AM 65.7 °F - 62.8 °F 90% 29.96 in 10.0 mi Calm Calm - N/A   Clear
12:55 AM 67.1 °F - 64.0 °F 90% 29.95 in 7.0 mi SSE 8.1 mph - N/A   Scattered Clouds
1:15 AM 67.1 °F - 64.2 °F 90% 29.93 in 7.0 mi SSE 6.9 mph - N/A   Scattered Clouds
1:35 AM 67.1 °F - 64.2 °F 90% 29.92 in 10.0 mi SSE 9.2 mph - N/A   Clear
1:55 AM 67.3 °F - 64.4 °F 90% 29.92 in 10.0 mi SSE 8.1 mph - N/A   Scattered Clouds
2:15 AM 67.1 °F - 64.4 °F 91% 29.92 in 10.0 mi SSE 5.8 mph - N/A   Clear
2:35 AM 67.5 °F - 64.6 °F 90% 29.93 in 10.0 mi South 5.8 mph - N/A   Clear
2:55 AM 67.6 °F - 64.8 °F 90% 29.94 in 10.0 mi Calm Calm - N/A   Clear
3:15 AM 70.5 °F - 67.5 °F 90% 29.98 in 10.0 mi North 8.1 mph 17.3 mph N/A Thunderstorm Mostly Cloudy
3:35 AM 69.4 °F - 65.5 °F 87% 29.95 in 10.0 mi ENE 3.5 mph - N/A   Overcast
3:55 AM 68.4 °F - 64.9 °F 89% 29.94 in 10.0 mi ENE 8.1 mph - N/A   Overcast
4:15 AM 68.4 °F - 65.1 °F 89% 29.92 in 10.0 mi East 6.9 mph - N/A   Mostly Cloudy
4:35 AM 68.0 °F - 64.8 °F 89% 29.92 in 10.0 mi ESE 6.9 mph - N/A   Scattered Clouds
4:55 AM 68.0 °F - 64.6 °F 89% 29.91 in 10.0 mi SE 8.1 mph - N/A   Clear
5:15 AM 68.0 °F - 64.8 °F 89% 29.92 in 10.0 mi SE 6.9 mph - N/A   Scattered Clouds
5:55 AM 67.5 °F - 64.6 °F 90% 29.93 in 10.0 mi NE 9.2 mph - N/A   Mostly Cloudy
6:15 AM 67.5 °F - 64.8 °F 91% 29.92 in 10.0 mi ENE 9.2 mph - N/A   Mostly Cloudy
6:35 AM 67.6 °F - 64.8 °F 90% 29.92 in 10.0 mi ENE 8.1 mph - N/A   Mostly Cloudy
6:55 AM 68.0 °F - 65.3 °F 91% 29.92 in 10.0 mi East 8.1 mph - N/A   Scattered Clouds
7:15 AM 68.9 °F - 65.7 °F 89% 29.91 in 10.0 mi East 10.4 mph - N/A   Scattered Clouds
7:35 AM 70.3 °F - 67.1 °F 89% 29.92 in 10.0 mi ESE 8.1 mph - N/A   Clear
7:55 AM 71.8 °F - 68.2 °F 88% 29.94 in 10.0 mi East 6.9 mph - N/A   Scattered Clouds
8:15 AM 71.8 °F - 68.4 °F 89% 29.95 in 10.0 mi SE 4.6 mph - N/A   Mostly Cloudy
8:35 AM 71.8 °F - 68.5 °F 89% 29.96 in 10.0 mi ENE 3.5 mph - N/A Thunderstorm Mostly Cloudy
8:55 AM 71.6 °F - 68.4 °F 89% 29.97 in 10.0 mi Calm Calm - N/A   Overcast
9:15 AM 71.1 °F - 68.0 °F 90% 29.97 in 10.0 mi North 6.9 mph - N/A Rain Light Rain
9:35 AM 70.7 °F - 67.6 °F 90% 29.99 in 3.0 mi Calm Calm - 0.06 in Rain , Thunderstorm Heavy Thunderstorms and Rain
9:55 AM 70.0 °F - 67.1 °F 91% 29.96 in 5.0 mi ESE 6.9 mph - 0.12 in Rain , Thunderstorm Light Thunderstorms and Rain
10:15 AM 70.7 °F - 67.6 °F 90% 29.91 in 5.0 mi ESE 6.9 mph - N/A   Light Drizzle
10:35 AM 71.2 °F - 68.4 °F 91% 29.92 in 4.0 mi SSE 5.8 mph - N/A Thunderstorm Clear
11:15 AM 73.0 °F - 70.2 °F 91% 29.92 in 4.0 mi South 8.1 mph - N/A   Scattered Clouds
11:35 AM 73.4 °F - 69.6 °F 88% 29.92 in 10.0 mi South 8.1 mph - N/A   Scattered Clouds
11:55 AM 75.2 °F - 70.9 °F 86% 29.90 in 10.0 mi South 12.7 mph - N/A   Clear
12:15 PM 77.4 °F - 72.9 °F 86% 29.89 in 10.0 mi South 17.3 mph - N/A   Clear
12:35 PM 78.6 °F - 73.2 °F 83% 29.87 in 10.0 mi South 19.6 mph 25.3 mph N/A   Clear
12:55 PM 80.8 °F 86.5 °F 75.2 °F 83% 29.85 in 10.0 mi South 25.3 mph - N/A   Clear
1:15 PM 81.0 °F 86.5 °F 74.7 °F 81% 29.85 in 10.0 mi South 20.7 mph 27.6 mph N/A   Clear
1:35 PM 80.8 °F 86.7 °F 75.4 °F 84% 29.87 in 10.0 mi SSW 15.0 mph 23.0 mph N/A   Clear
1:55 PM 81.5 °F 88.5 °F 76.1 °F 84% 29.89 in 10.0 mi SW 10.4 mph 16.1 mph N/A   Clear
2:15 PM 81.7 °F 88.7 °F 76.1 °F 83% 29.88 in 10.0 mi SW 6.9 mph - N/A   Clear
2:35 PM 82.4 °F 90.3 °F 76.5 °F 82% 29.88 in 10.0 mi SSW 5.8 mph - N/A   Clear
2:55 PM 82.6 °F 91.4 °F 77.4 °F 84% 29.87 in 10.0 mi SSW 5.8 mph - N/A   Scattered Clouds
3:35 PM 83.8 °F 93.5 °F 77.0 °F 80% 29.86 in 10.0 mi SSW 10.4 mph - N/A   Scattered Clouds
3:55 PM 83.5 °F 92.6 °F 76.6 °F 80% 29.84 in 10.0 mi SSW 10.4 mph - N/A   Scattered Clouds
4:35 PM 83.3 °F 92.1 °F 76.6 °F 80% 29.85 in 10.0 mi SW 9.2 mph - N/A   Scattered Clouds
4:55 PM 83.3 °F 92.4 °F 77.0 °F 81% 29.85 in 10.0 mi SW 6.9 mph - N/A   Clear
5:15 PM 82.2 °F 90.1 °F 76.5 °F 83% 29.85 in 10.0 mi WSW 9.2 mph - N/A   Scattered Clouds
5:35 PM 82.0 °F 89.7 °F 76.3 °F 83% 29.85 in 10.0 mi SW 9.2 mph - N/A   Mostly Cloudy
5:55 PM 81.1 °F 87.8 °F 76.1 °F 85% 29.85 in 10.0 mi SSW 5.8 mph - N/A   Mostly Cloudy
6:15 PM 81.0 °F 87.1 °F 75.7 °F 84% 29.84 in 10.0 mi SW 5.8 mph - N/A   Clear
6:35 PM 79.7 °F - 75.6 °F 87% 29.84 in 10.0 mi Calm Calm - N/A   Scattered Clouds
6:55 PM 79.7 °F - 75.9 °F 88% 29.84 in 10.0 mi South 3.5 mph - N/A   Scattered Clouds
7:15 PM 79.0 °F - 75.6 °F 89% 29.83 in 7.0 mi South 5.8 mph - N/A   Scattered Clouds
7:35 PM 78.8 °F - 75.2 °F 89% 29.83 in 7.0 mi Calm Calm - N/A   Clear
7:55 PM 78.3 °F - 75.2 °F 90% 29.84 in 7.0 mi Calm Calm - N/A   Clear
8:15 PM 78.1 °F - 74.8 °F 90% 29.84 in 7.0 mi Calm Calm - N/A   Clear
8:55 PM 77.0 °F - 73.8 °F 90% 29.83 in 7.0 mi South 6.9 mph - N/A   Scattered Clouds
9:15 PM 76.3 °F - 73.2 °F 90% 29.84 in 10.0 mi South 8.1 mph - N/A   Scattered Clouds
9:35 PM 75.2 °F - 71.8 °F 89% 29.85 in 10.0 mi South 6.9 mph - N/A   Clear
9:55 PM 74.5 °F - 71.4 °F 90% 29.86 in 10.0 mi South 8.1 mph - N/A   Clear
10:15 PM 74.1 °F - 70.7 °F 89% 29.85 in 10.0 mi South 5.8 mph - N/A   Clear
10:35 PM 73.0 °F - 70.0 °F 90% 29.85 in 10.0 mi SSW 4.6 mph - N/A   Clear
10:55 PM 73.0 °F - 69.8 °F 90% 29.85 in 10.0 mi South 6.9 mph - N/A   Clear
11:15 PM 72.0 °F - 68.9 °F 90% 29.84 in 10.0 mi South 8.1 mph - N/A Rain Light Rain
11:35 PM 71.8 °F - 68.9 °F 91% 29.84 in 10.0 mi South 9.2 mph - N/A   Clear
11:55 PM 71.6 °F - 68.5 °F 90% 29.85 in 10.0 mi South 8.1 mph - N/A   Scattered Clouds